User: anonymous   Login
Location: Igon
(43.1667°N, 0.2333°W)
Time: 13:02:13
(UTC+00:00)
Language:

Lacrosse 4 Rocket - Orbit

View from above orbital plane
View from above orbital plane
View from above satellite
View from above satellite

Ground track
Ground track

The orbit data is extracted from the following two-line orbital elements,

1 26474U 00047B   21061.45687711  .00000227  00000-0  30370-4 0  9991
2 26474  67.9927  85.4559 0061163 273.4891  85.9257 14.96093667117839
Epoch (UTC): 02 March 2021 10:57:54
Eccentricity: 0.0061163
inclination: 67.9927°
perigee height: 536 km
apogee height: 621 km
right ascension of ascending node: 85.4559°
argument of perigee: 273.4891°
revolutions per day: 14.96093667
mean anomaly at epoch: 85.9257°
orbit number at epoch: 11783

The dashed part of the orbit path shows where the satellite is in the earth's shadow,  

DLR